Home   Weather   Szczecin   Past weeks
Flag for Poland

Past Weather in Szczecin, Poland — Yesterday and Last 2 Weeks

Now
43 °F

Broken clouds.


Feels Like: 35 °F
Forecast: 49 / 31 °F
Wind: 17 mph from Northwest

Location: Szczecin Airport

Current Time: Mar 26, 2019 at 11:29:28 am

Latest Report: Mar 26, 2019 at 11:00 am


Visibility: N/A

Pressure: 30.07 "Hg

Humidity: 71%

Dew Point: 34 °F

Location of SzczecinLocation

Past Weather in Szczecin — Graph

°F

Szczecin Temperature Yesterday

Maximum temperature yesterday: 43 °F (at 1:30 pm)
Minimum temperature yesterday: 30 °F (at 12:00 am)
Average temperature yesterday: 36 °F

High & Low Weather Summary for the Past Weeks

 TemperatureHumidityPressure
High55 °F (Mar 21, 3:00 pm)100% (Mar 11, 8:30 pm)30.54 "Hg (Mar 11, 8:30 pm)
Low27 °F (Mar 20, 1:00 am)50% (Mar 13, 2:00 pm)29.21 "Hg (Mar 15, 7:30 pm)
Average42 °F81%29.92 "Hg
* Reported Mar 11 10:00 am — Mar 26 10:00 am, Szczecin. Weather by CustomWeather, © 2019

Note: Actual official high and low records may vary slightly from our data, if they occured in-between our weather recording intervals... More about our weather records

Advertising

Szczecin Weather History for the Previous 24 Hours

Scroll right to see more
 ConditionsComfort  
Time TempWeatherWind HumidityBarometerVisibility
10:00 am
Tue, Mar 26
41 °FBroken clouds.18 mph76%30.07 "HgN/A
9:30 am41 °FPartly sunny.18 mph76%30.07 "HgN/A
9:00 am39 °FBroken clouds.17 mph81%30.07 "HgN/A
8:30 am39 °FBroken clouds.13 mph81%30.07 "HgN/A
8:00 am37 °FBroken clouds.12 mph87%30.09 "HgN/A
7:30 am37 °FPartly sunny.12 mph87%30.09 "HgN/A
7:00 am36 °FBroken clouds.14 mph93%30.09 "HgN/A
6:30 am34 °FBroken clouds.14 mph100%30.09 "Hg6 mi
6:00 am34 °FFog.2 mph93%30.09 "Hg4 mi
5:30 am34 °FPartly cloudy.6 mph93%30.09 "Hg4 mi
5:00 am34 °FFog.5 mph93%30.09 "Hg2 mi
4:30 am34 °FFog.6 mph100%30.12 "Hg3 mi
4:00 am34 °FFog.6 mph93%30.12 "Hg2 mi
3:30 am34 °FFog.5 mph93%30.12 "Hg2 mi
3:00 am34 °FOvercast.6 mph100%30.12 "Hg5 mi
2:30 am36 °FLow clouds.7 mph93%30.12 "Hg4 mi
2:00 am34 °FFog.6 mph100%30.12 "Hg3 mi
1:30 am34 °FFog.3 mph100%30.12 "Hg3 mi
1:00 am34 °FPartly cloudy.6 mph100%30.12 "Hg6 mi
12:30 am34 °FFog.5 mph100%30.12 "Hg3 mi
12:00 am34 °FFog.6 mph100%30.12 "Hg3 mi
11:30 pm
Mon, Mar 25
32 °FIce fog.1 mph100%30.12 "Hg2 mi
11:00 pm32 °FFog.1 mph100%30.12 "Hg1 mi
10:30 pm34 °FPassing clouds.1 mph93%30.12 "HgN/A
10:00 pm32 °FPassing clouds.3 mph100%30.12 "HgN/A
9:30 pm34 °FClear.3 mph93%30.09 "Hg10 mi
9:00 pm34 °FPassing clouds.5 mph93%30.09 "HgN/A
8:30 pm36 °FPassing clouds.6 mph87%30.07 "HgN/A
8:00 pm37 °FOvercast.6 mph87%30.07 "HgN/A
7:30 pm37 °FMostly cloudy.9 mph87%30.04 "HgN/A
7:00 pm39 °FPassing clouds.8 mph87%30.04 "HgN/A
6:30 pm39 °FLow clouds.7 mph93%30.01 "HgN/A
6:00 pm39 °FBroken clouds.8 mph93%29.98 "HgN/A
5:30 pm39 °FBroken clouds.9 mph93%29.98 "HgN/A
5:00 pm39 °FPartly sunny.12 mph93%29.95 "HgN/A
4:30 pm41 °FPartly sunny.10 mph87%29.92 "HgN/A
4:00 pm43 °FPartly sunny.12 mph81%29.92 "HgN/A
3:30 pm41 °FBroken clouds.13 mph81%29.89 "HgN/A
3:00 pm41 °FPartly sunny.12 mph87%29.89 "HgN/A
2:30 pm41 °FSprinkles. Partly sunny.17 mph81%29.89 "HgN/A
2:00 pm43 °FBroken clouds.20 mph71%29.86 "HgN/A
1:30 pm43 °FSprinkles. Broken clouds.21 mph76%29.86 "HgN/A
1:00 pm39 °FBroken clouds.9 mph93%29.86 "HgN/A
12:30 pm37 °FSprinkles. Broken clouds.17 mph93%29.86 "Hg4 mi
12:00 pm41 °FBroken clouds.8 mph87%29.83 "HgN/A
11:30 am37 °FLight rain. Partly sunny.10 mph93%29.83 "Hg4 mi
11:00 am39 °FCloudy.9 mph93%29.83 "HgN/A
Weather by CustomWeather, © 2019

See weather overview